Regional Weather Roundup
Issued by NWS

Home | Current Version | Previous Version | Graphics & Text | Print | Product List | Glossary On
Versions: 1 2 3 4 5 6 7 8 9 10 11 12 13 14 15 16 17 18 19 20 21 22 23 24 25 26 27 28 29 30 31 32 33 34 35 36 37 38 39 40 41 42 43 44 45 46 47 48 49 50
000
ASUS43 KBIS 072202
RWRND

NORTH DAKOTA REGIONAL WEATHER ROUNDUP
NATIONAL WEATHER SERVICE BISMARCK ND
400 PM CST WED DEC 07 2016

NOTE: "FAIR" INDICATES FEW OR NO CLOUDS BELOW 12,000 FEET WITH NO
SIGNIFICANT WEATHER AND/OR OBSTRUCTIONS TO VISIBILITY.


NDZ001>003-009>011-017-072300-
NORTHWEST NORTH DAKOTA

CITY           SKY/WX    TMP DP  RH WIND       PRES   REMARKS
WILLISTON      LGT SNOW   2  -6  69 NW14      30.47R WCI -16
MINOT          LGT SNOW   6   1  80 W31G44    30.28R WCI -18
MINOT AFB      SNOW       3   0  85 NW33G47   30.28R VSB 1/2 WCI -23
$$

NDZ018>021-031>035-040>046-072300-
SOUTHWEST NORTH DAKOTA

CITY           SKY/WX    TMP DP  RH WIND       PRES   REMARKS
BISMARCK       MIX PCPN   4  -2  76 W22G31    30.34R WCI -18
DICKINSON      MOCLDY     0  -7  72 NW29G35   30.34R HAZE    WCI -26
GARRISON         N/A      2  -2  83 NW38G47   30.29R WCI -26
HETTINGER ARPT PTCLDY     3  -4  72 NW31G40   30.35R HAZE    WCI -22
$$

NDZ004>008-012>016-024-026-027-054-072300-
NORTHEAST NORTH DAKOTA

CITY           SKY/WX    TMP DP  RH WIND       PRES   REMARKS
GRAND FORKS    LGT SNOW  20  14  77 NW28G35   30.04R VSB 3/4 WCI   2
GRND FRKS AFB  FLURRIES  19  14  81 NW21G29   30.05R WCI   3
DEVILS LAKE    SNOW      12   9  87 NW28G35   30.12R VSB 1/2 WCI  -9
$$

NDZ022-023-025-028>030-036>039-047>053-072300-
SOUTHEAST NORTH DAKOTA

CITY           SKY/WX    TMP DP  RH WIND       PRES   REMARKS
FARGO          LGT SNOW  16  10  77 W25G32    30.09R WCI  -3
JAMESTOWN      SNOW       8   5  87 NW30G41   30.16R VSB 1/2 WCI -15
$$




USA.gov is the U.S. government's official web portal to all federal, state and local government web resources and services.